| time (UTC) | temp F | wind direction | speed knots | gust knots | rain 1hr in | rain 24hr in | rain mn in | humidity % | barometer mb |
| 20260507021904 | 78 | 338 | 10.4 | 20.9 | 0.00 | 0.00 | 0.00 | 73 | 998.5 |
| 20260507021353 | 78 | 338 | 7.0 | 25.2 | 0.00 | 0.00 | 0.00 | 73 | 997.9 |
| 20260507020846 | 78 | 0 | 13.9 | 25.2 | 0.00 | 0.00 | 0.00 | 73 | 997.8 |
| 20260507020333 | 78 | 0 | 9.6 | 23.5 | 0.00 | 0.00 | 0.00 | 73 | 998.5 |
| 20260507014803 | 78 | 338 | 13.0 | 23.5 | 0.00 | 0.00 | 0.00 | 74 | 998.9 |
| 20260507014252 | 78 | 338 | 11.3 | 23.5 | 0.00 | 0.00 | 0.00 | 74 | 999.4 |
| 20260507013743 | 78 | 315 | 9.6 | 20.9 | 0.00 | 0.00 | 0.00 | 75 | 999.3 |
| 20260507013232 | 78 | 338 | 6.1 | 20.9 | 0.00 | 0.00 | 0.00 | 75 | 999.1 |
| 20260507012212 | 77 | 338 | 3.5 | 21.7 | 0.00 | 0.00 | 0.00 | 75 | 999.0 |
| 20260507011702 | 77 | 338 | 7.8 | 21.7 | 0.00 | 0.00 | 0.00 | 75 | 999.3 |
| 20260507011152 | 77 | 338 | 5.2 | 20.0 | 0.00 | 0.00 | 0.00 | 75 | 999.1 |
| 20260507010642 | 77 | 315 | 13.0 | 20.9 | 0.00 | 0.00 | 0.00 | 75 | 998.9 |
| 20260507010139 | 77 | 338 | 13.0 | 20.9 | 0.00 | 0.00 | 0.00 | 75 | 998.7 |
| 20260507005111 | 77 | 338 | 7.0 | 23.5 | 0.00 | 0.00 | 0.00 | 75 | 998.7 |
| 20260507004601 | 78 | 0 | 11.3 | 23.5 | 0.00 | 0.00 | 0.00 | 75 | 999.0 |
| 20260507004052 | 78 | 0 | 11.3 | 19.1 | 0.00 | 0.00 | 0.00 | 75 | 999.2 |
| 20260507003031 | 77 | 338 | 6.1 | 14.8 | 0.00 | 0.00 | 0.00 | 75 | 999.5 |
| 20260507002522 | 77 | 338 | 3.5 | 18.2 | 0.00 | 0.00 | 0.00 | 75 | 999.3 |
| 20260507002010 | 77 | 338 | 9.6 | 18.2 | 0.00 | 0.00 | 0.00 | 75 | 999.0 |
| 20260507001501 | 77 | 338 | 3.5 | 17.4 | 0.00 | 0.00 | 0.00 | 76 | 999.0 |
| 20260507000951 | 77 | 338 | 4.3 | 12.2 | 0.00 | 0.00 | 0.00 | 76 | 998.8 |
| 20260507000442 | 76 | 0 | 2.6 | 7.8 | 0.00 | 0.00 | 0.00 | 77 | 998.8 |
| 20260506235931 | 75 | 338 | 2.6 | 9.6 | 0.00 | 0.00 | 0.00 | 77 | 999.1 |
| 20260506235420 | 75 | 0 | 1.7 | 9.6 | 0.00 | 0.00 | 0.00 | 77 | 999.3 |
| 20260506234911 | 75 | 23 | 1.7 | 5.2 | 0.00 | 0.00 | 0.00 | 77 | 999.1 |
| 20260506234400 | 75 | 338 | 1.7 | 6.1 | 0.00 | 0.00 | 0.00 | 77 | 999.5 |
| 20260506233850 | 75 | 338 | 1.7 | 6.1 | 0.00 | 0.00 | 0.00 | 76 | 999.9 |
| 20260506232830 | 75 | 23 | 1.7 | 18.2 | 0.00 | 0.00 | 0.00 | 76 | 999.1 |
| 20260506232320 | 75 | 23 | 2.6 | 18.2 | 0.00 | 0.00 | 0.00 | 77 | 998.6 |
| 20260506231259 | 74 | 23 | 2.6 | 9.6 | 0.00 | 0.00 | 0.00 | 78 | 998.7 |
| 20260506230749 | 73 | 45 | 1.7 | 12.2 | 0.00 | 0.00 | 0.00 | 79 | 999.0 |
| 20260506225221 | 72 | 45 | 1.7 | 9.6 | 0.00 | 0.00 | 0.00 | 80 | 999.6 |
| 20260506224709 | 72 | 23 | 2.6 | 9.6 | 0.00 | 0.00 | 0.00 | 81 | 999.8 |
| 20260506224158 | 72 | 23 | 2.6 | 7.0 | 0.00 | 0.00 | 0.00 | 81 | 1000.0 |
| 20260506223649 | 72 | 23 | 1.7 | 7.0 | 0.00 | 0.00 | 0.00 | 82 | 999.8 |
| 20260506223138 | 72 | 23 | 1.7 | 7.8 | 0.00 | 0.00 | 0.00 | 82 | 1000.0 |
| 20260506222629 | 71 | 0 | 2.6 | 7.8 | 0.00 | 0.00 | 0.00 | 82 | 1000.1 |
| 20260506222118 | 71 | 68 | 1.7 | 7.8 | 0.00 | 0.00 | 0.00 | 82 | 1000.2 |
| 20260506221609 | 71 | 45 | 2.6 | 7.8 | 0.00 | 0.00 | 0.00 | 82 | 1000.2 |
| 20260506221058 | 71 | 45 | 1.7 | 7.0 | 0.00 | 0.00 | 0.00 | 83 | 1000.2 |
| 20260506220547 | 71 | 45 | 1.7 | 13.9 | 0.00 | 0.00 | 0.00 | 83 | 1000.3 |
| 20260506220037 | 71 | 45 | 1.7 | 13.9 | 0.00 | 0.00 | 0.00 | 83 | 1000.4 |
| 20260506214510 | 72 | 45 | 1.7 | 7.8 | 0.00 | 0.00 | 0.00 | 83 | 1001.4 |
| 20260506213447 | 72 | 45 | 7.0 | 9.6 | 0.00 | 0.00 | 0.00 | 83 | 1001.4 |
| 20260506212937 | 72 | 45 | 1.7 | 3.5 | 0.00 | 0.00 | 0.00 | 83 | 1001.5 |
| 20260506212426 | 72 | 45 | 0.9 | 3.5 | 0.00 | 0.00 | 0.00 | 83 | 1001.7 |
| 20260506211916 | 72 | 45 | 0.9 | 3.5 | 0.00 | 0.00 | 0.00 | 82 | 1001.7 |
| 20260506211407 | 72 | 45 | 1.7 | 5.2 | 0.00 | 0.00 | 0.00 | 82 | 1001.9 |
| 20260506210856 | 72 | 68 | 0.9 | 5.2 | 0.00 | 0.00 | 0.00 | 82 | 1001.9 |
| 20260506205837 | 72 | 68 | 0.9 | 3.5 | 0.00 | 0.00 | 0.00 | 82 | 1001.7 |
| 20260506205326 | 72 | 45 | 0.9 | 3.5 | 0.00 | 0.00 | 0.00 | 82 | 1001.8 |
| 20260506204816 | 72 | 90 | 0.9 | 3.5 | 0.00 | 0.00 | 0.00 | 81 | 1001.9 |
| 20260506204306 | 73 | 90 | 0.0 | 3.5 | 0.00 | 0.00 | 0.00 | 81 | 1001.9 |
| 20260506203756 | 73 | 45 | 1.7 | 5.2 | 0.00 | 0.00 | 0.00 | 81 | 1001.8 |
| 20260506203246 | 73 | 68 | 1.7 | 5.2 | 0.00 | 0.00 | 0.00 | 81 | 1002.0 |
| 20260506202226 | 73 | 90 | 0.0 | 3.5 | 0.00 | 0.00 | 0.00 | 81 | 1001.8 |
| 20260506201716 | 73 | 68 | 1.7 | 3.5 | 0.00 | 0.00 | 0.00 | 81 | 1002.0 |
| 20260506200655 | 74 | 90 | 1.7 | 6.1 | 0.00 | 0.00 | 0.00 | 80 | 1002.1 |
| 20260506200145 | 74 | 68 | 1.7 | 5.2 | 0.00 | 0.00 | 0.00 | 80 | 1002.4 |
| 20260506195635 | 74 | 45 | 0.9 | 5.2 | 0.00 | 0.00 | 0.00 | 80 | 1002.4 |
| 20260506195124 | 74 | 23 | 1.7 | 6.1 | 0.00 | 0.00 | 0.00 | 79 | 1002.4 |
| 20260506194614 | 74 | 68 | 1.7 | 6.1 | 0.00 | 0.00 | 0.00 | 80 | 1002.3 |
| 20260506194105 | 74 | 68 | 1.7 | 6.1 | 0.00 | 0.00 | 0.00 | 80 | 1002.5 |
| 20260506193554 | 74 | 68 | 1.7 | 3.5 | 0.00 | 0.00 | 0.00 | 80 | 1002.3 |
| 20260506193044 | 74 | 45 | 1.7 | 3.5 | 0.00 | 0.00 | 0.00 | 80 | 1002.5 |
| 20260506192024 | 74 | 45 | 1.7 | 5.2 | 0.00 | 0.00 | 0.00 | 80 | 1002.6 |
| 20260506191514 | 74 | 45 | 1.7 | 3.5 | 0.00 | 0.00 | 0.00 | 80 | 1002.9 |
| 20260506191004 | 74 | 45 | 2.6 | 9.6 | 0.00 | 0.00 | 0.00 | 80 | 1002.9 |
| 20260506190454 | 75 | 45 | 1.7 | 9.6 | 0.00 | 0.00 | 0.00 | 80 | 1003.1 |
| 20260506185944 | 74 | 23 | 3.5 | 12.2 | 0.00 | 0.00 | 0.00 | 80 | 1003.2 |
| 20260506184924 | 74 | 45 | 1.7 | 12.2 | 0.00 | 0.00 | 0.00 | 80 | 1003.3 |
| 20260506184414 | 75 | 68 | 0.9 | 3.5 | 0.00 | 0.00 | 0.00 | 81 | 1003.7 |
| 20260506183903 | 75 | 23 | 0.9 | 3.5 | 0.00 | 0.00 | 0.00 | 81 | 1003.2 |
| 20260506183349 | 74 | 0.0 | 0.0 | 0.00 | 0.00 | 0.00 | 81 |